• In Uzbekistan
  • List of Countries
  • For 7 days
  • Water Temperature
  • Satellite Maps
  • Weather Map
  • Weather Widgets
  • user-avatar
    Login

    Hourly Weather Altena

    Today, 18 July, Wednesday

    Time Temperature Precipitation Wind Pressure Humidity
    00:00 +17°C° 0 mm 2 mps 741 mmHg 68%
    01:00 +16°C° 0 mm 1 mps 741 mmHg 69%
    02:00 +15°C° 0 mm 1 mps 741 mmHg 71%
    03:00 +15°C° 0 mm 1 mps 741 mmHg 74%
    04:00 +13°C° 0 mm 0 mps 741 mmHg 76%
    05:00 +15°C° 0 mm 1 mps 741 mmHg 72%
    06:00 +16°C° 0 mm 1 mps 741 mmHg 69%
    07:00 +18°C° 0 mm 1 mps 742 mmHg 65%
    08:00 +20°C° 0 mm 1 mps 742 mmHg 59%
    09:00 +22°C° 0 mm 1 mps 742 mmHg 53%
    10:00 +23°C° 0 mm 2 mps 742 mmHg 47%
    11:00 +24°C° 0 mm 2 mps 742 mmHg 44%
    12:00 +25°C° 0 mm 2 mps 742 mmHg 41%
    13:00 +26°C° 0 mm 2 mps 742 mmHg 39%
    14:00 +26°C° 0 mm 2 mps 742 mmHg 39%
    15:00 +26°C° 0 mm 2 mps 742 mmHg 39%
    16:00 +27°C° 0 mm 2 mps 741 mmHg 39%
    17:00 +26°C° 0 mm 2 mps 741 mmHg 44%
    18:00 +25°C° 0 mm 2 mps 741 mmHg 49%
    19:00 +24°C° 0 mm 2 mps 741 mmHg 54%
    20:00 +21°C° 0 mm 2 mps 741 mmHg 60%
    21:00 +20°C° 0 mm 2 mps 742 mmHg 65%
    22:00 +18°C° 0 mm 2 mps 742 mmHg 71%
    23:00 +17°C° 0 mm 2 mps 742 mmHg 73%

    Tomorrow, 19 July, Thursday

    Time Temperature Precipitation Wind Pressure Humidity
    00:00 +17°C° 0 mm 2 mps 742 mmHg 74%
    01:00 +16°C° 0 mm 2 mps 742 mmHg 76%
    02:00 +16°C° 0 mm 2 mps 742 mmHg 77%
    03:00 +15°C° 0 mm 1 mps 742 mmHg 78%
    04:00 +15°C° 0 mm 1 mps 742 mmHg 78%
    05:00 +16°C° 0 mm 1 mps 742 mmHg 74%
    06:00 +18°C° 0 mm 1 mps 742 mmHg 70%
    07:00 +19°C° 0 mm 1 mps 742 mmHg 65%
    08:00 +21°C° 0 mm 1 mps 742 mmHg 59%
    09:00 +23°C° 0 mm 1 mps 742 mmHg 53%
    10:00 +25°C° 0 mm 1 mps 742 mmHg 47%
    11:00 +25°C° 0 mm 1 mps 742 mmHg 46%
    12:00 +26°C° 0 mm 1 mps 742 mmHg 45%
    13:00 +26°C° 0 mm 1 mps 742 mmHg 45%
    14:00 +26°C° 0 mm 1 mps 742 mmHg 44%
    15:00 +26°C° 0 mm 1 mps 741 mmHg 44%
    16:00 +27°C° 0 mm 1 mps 741 mmHg 43%
    17:00 +26°C° 0 mm 1 mps 741 mmHg 48%
    18:00 +25°C° 0 mm 1 mps 741 mmHg 52%
    19:00 +24°C° 0 mm 2 mps 741 mmHg 57%
    20:00 +23°C° 0 mm 2 mps 741 mmHg 60%
    21:00 +21°C° 0 mm 2 mps 741 mmHg 63%
    22:00 +19°C° 0 mm 2 mps 741 mmHg 67%
    23:00 +19°C° 0 mm 2 mps 741 mmHg 67%

    Day after tomorrow, 20 July, Friday

    Time Temperature Precipitation Wind Pressure Humidity
    00:00 +18°C° 0 mm 2 mps 741 mmHg 68%
    01:00 +18°C° 0 mm 2 mps 740 mmHg 69%
    02:00 +17°C° 0 mm 2 mps 740 mmHg 70%
    03:00 +17°C° 0 mm 2 mps 740 mmHg 70%
    04:00 +17°C° 0 mm 2 mps 740 mmHg 70%
    05:00 +18°C° 0 mm 2 mps 740 mmHg 68%
    06:00 +18°C° 0 mm 2 mps 739 mmHg 67%
    07:00 +19°C° 0 mm 2 mps 739 mmHg 65%
    08:00 +21°C° 0 mm 2 mps 739 mmHg 59%
    09:00 +23°C° 0 mm 2 mps 739 mmHg 54%
    10:00 +25°C° 0 mm 2 mps 739 mmHg 49%
    11:00 +26°C° 0 mm 2 mps 739 mmHg 47%
    12:00 +26°C° 0 mm 2 mps 739 mmHg 46%
    13:00 +27°C° 0 mm 1 mps 738 mmHg 44%
    14:00 +26°C° 0.5 mm 1 mps 738 mmHg 52%
    15:00 +24°C° 0.5 mm 1 mps 738 mmHg 60%
    16:00 +23°C° 0.5 mm 1 mps 737 mmHg 68%
    17:00 +22°C° 0.7 mm 1 mps 737 mmHg 73%
    18:00 +21°C° 0.7 mm 1 mps 737 mmHg 78%
    19:00 +21°C° 0.7 mm 1 mps 736 mmHg 83%
    20:00 +20°C° 0.4 mm 1 mps 736 mmHg 84%
    21:00 +20°C° 0.4 mm 1 mps 736 mmHg 85%
    22:00 +19°C° 0.4 mm 1 mps 737 mmHg 87%
    23:00 +19°C° 0.4 mm 1 mps 736 mmHg 88%

    21 July, Saturday

    Time Temperature Precipitation Wind Pressure Humidity
    00:00 +19°C° 0.4 mm 1 mps 736 mmHg 88%
    01:00 +19°C° 0.4 mm 1 mps 736 mmHg 89%
    02:00 +18°C° 0 mm 1 mps 736 mmHg 90%
    03:00 +18°C° 0 mm 1 mps 736 mmHg 90%
    04:00 +18°C° 0 mm 1 mps 735 mmHg 90%
    05:00 +18°C° 0 mm 1 mps 736 mmHg 89%
    06:00 +19°C° 0 mm 1 mps 736 mmHg 87%
    07:00 +20°C° 0 mm 1 mps 736 mmHg 86%
    08:00 +20°C° 0.1 mm 2 mps 736 mmHg 79%
    09:00 +21°C° 0.1 mm 2 mps 736 mmHg 71%
    10:00 +24°C° 0.1 mm 2 mps 736 mmHg 64%
    11:00 +24°C° 0.4 mm 2 mps 736 mmHg 64%
    12:00 +25°C° 0.4 mm 2 mps 736 mmHg 63%
    13:00 +26°C° 0.4 mm 2 mps 736 mmHg 62%
    14:00 +26°C° 0.5 mm 2 mps 736 mmHg 60%
    15:00 +26°C° 0.5 mm 3 mps 736 mmHg 59%
    16:00 +26°C° 0.5 mm 3 mps 736 mmHg 58%
    17:00 +25°C° 0.2 mm 3 mps 736 mmHg 61%
    18:00 +25°C° 0.2 mm 2 mps 736 mmHg 64%
    19:00 +24°C° 0.2 mm 2 mps 736 mmHg 67%
    20:00 +23°C° 0 mm 2 mps 737 mmHg 71%
    21:00 +20°C° 0 mm 2 mps 737 mmHg 76%
    22:00 +19°C° 0 mm 2 mps 737 mmHg 80%
    23:00 +18°C° 0 mm 2 mps 737 mmHg 83%

    22 July, Sunday

    Time Temperature Precipitation Wind Pressure Humidity
    00:00 +18°C° 0 mm 1 mps 737 mmHg 85%
    01:00 +18°C° 0 mm 1 mps 737 mmHg 87%
    02:00 +16°C° 0 mm 1 mps 738 mmHg 87%
    03:00 +16°C° 0 mm 1 mps 738 mmHg 88%
    04:00 +16°C° 0 mm 1 mps 738 mmHg 89%
    05:00 +16°C° 0 mm 1 mps 738 mmHg 87%
    06:00 +18°C° 0 mm 1 mps 738 mmHg 84%
    07:00 +19°C° 0 mm 1 mps 738 mmHg 81%
    08:00 +19°C° 0 mm 2 mps 739 mmHg 75%
    09:00 +20°C° 0 mm 2 mps 739 mmHg 68%
    10:00 +23°C° 0 mm 2 mps 739 mmHg 61%
    11:00 +24°C° 0.1 mm 2 mps 739 mmHg 57%
    12:00 +24°C° 0.1 mm 3 mps 739 mmHg 53%
    13:00 +25°C° 0.1 mm 3 mps 739 mmHg 50%
    14:00 +25°C° 0.1 mm 3 mps 739 mmHg 49%
    15:00 +25°C° 0.1 mm 3 mps 739 mmHg 49%
    16:00 +26°C° 0.1 mm 3 mps 739 mmHg 49%
    17:00 +25°C° 0 mm 3 mps 739 mmHg 52%
    18:00 +24°C° 0 mm 2 mps 739 mmHg 56%
    19:00 +23°C° 0 mm 2 mps 739 mmHg 60%
    20:00 +21°C° 0 mm 2 mps 740 mmHg 66%
    21:00 +19°C° 0 mm 2 mps 740 mmHg 72%
    22:00 +19°C° 0 mm 1 mps 740 mmHg 78%
    23:00 +18°C° 0 mm 1 mps 741 mmHg 81%

    23 July, Monday

    Time Temperature Precipitation Wind Pressure Humidity
    00:00 +16°C° 0 mm 1 mps 741 mmHg 83%
    01:00 +16°C° 0 mm 1 mps 741 mmHg 86%
    02:00 +16°C° 0 mm 1 mps 741 mmHg 87%
    03:00 +15°C° 0 mm 1 mps 741 mmHg 87%
    04:00 +14°C° 0 mm 0 mps 741 mmHg 88%
    05:00 +15°C° 0 mm 0 mps 741 mmHg 84%
    06:00 +16°C° 0 mm 0 mps 741 mmHg 80%
    07:00 +17°C° 0 mm 0 mps 741 mmHg 76%
    08:00 +19°C° 0 mm 0 mps 741 mmHg 69%
    09:00 +21°C° 0 mm 0 mps 741 mmHg 61%
    10:00 +25°C° 0 mm 1 mps 741 mmHg 53%
    11:00 +26°C° 0 mm 1 mps 741 mmHg 50%
    12:00 +27°C° 0 mm 1 mps 741 mmHg 46%
    13:00 +27°C° 0 mm 1 mps 741 mmHg 43%
    14:00 +27°C° 0 mm 1 mps 740 mmHg 43%
    15:00 +28°C° 0 mm 1 mps 740 mmHg 42%
    16:00 +28°C° 0 mm 1 mps 740 mmHg 42%
    17:00 +27°C° 0 mm 1 mps 740 mmHg 46%
    18:00 +26°C° 0 mm 1 mps 740 mmHg 50%
    19:00 +25°C° 0 mm 1 mps 740 mmHg 55%
    20:00 +24°C° 0 mm 1 mps 740 mmHg 59%
    21:00 +21°C° 0 mm 2 mps 740 mmHg 63%
    22:00 +20°C° 0 mm 2 mps 740 mmHg 67%
    23:00 +19°C° 0 mm 2 mps 740 mmHg 69%
    Show more